Wind_Speed
8 7 7 7 7 6 6 6 7 7 7 7 6 6 6 6 6 6 6 6 5 6 6 5 5 4 4 4 4 5 5 4 4 4 4 4 4 4 4 4 5 5 6
6 6 7 7 7 7 6 6 6 5 6 6 6 6 6 5 5 5 5 5 5 5 5 4 4 3 3 4 4 4 4 4 4 4 4 5 5 4 5 5 5 6 6
6 5 6 7 7 8 7 6 5 5 5 6 6 6 6 5 5 6 5 5 4 3 3 3 2 2 3 4 3 3 4 4 4 5 5 4 4 4 5 6 6 6 6
7 6 7 7 7 7 7 7 6 6 5 5 6 6 5 5 5 5 4 3 3 2 2 3 3 3 3 3 3 3 3 4 4 4 4 4 4 5 6 6 6 6 7
6 6 7 7 7 7 6 6 6 6 6 6 6 6 6 5 5 4 3 3 3 3 3 3 3 3 4 4 4 4 4 4 4 4 5 5 5 6 7 7 7 7 7
7 7 7 7 6 7 6 6 6 6 6 6 6 6 6 6 5 4 4 4 4 4 4 3 3 4 4 5 5 5 5 5 5 5 6 6 6 7 7 7 7 7 7
7 6 6 7 7 7 7 7 7 7 6 6 6 6 6 6 5 5 5 4 4 4 4 4 4 4 4 4 5 5 6 6 6 7 7 7 6 7 7 7 8 8 8
6 6 7 7 7 7 7 7 7 8 8 7 7 7 7 6 6 6 6 5 5 4 4 4 4 4 5 5 5 6 7 7 8 8 8 7 7 7 7 8 8 9 9
6 6 7 7 7 7 6 6 7 7 8 8 7 7 7 7 7 7 7 6 5 5 5 5 5 5 5 6 6 7 7 8 8 8 8 8 8 8 8 9 9 9 10
7 7 7 7 7 7 7 7 7 7 8 8 8 8 8 7 7 7 7 7 7 7 6 6 7 6 6 7 7 7 7 7 8 8 8 9 9 9 10 10 10 10 11
7 6 7 7 7 7 7 7 7 7 7 7 8 8 8 8 8 8 7 7 7 7 7 7 7 7 7 7 7 7 7 7 8 9 9 10 10 10 10 11 11 11 11
7 6 7 7 7 7 7 7 7 7 8 7 7 7 8 8 8 8 8 8 8 8 8 8 8 8 8 8 8 8 8 8 9 10 10 10 10 11 11 11 11 11 11
7 7 7 7 7 7 7 7 7 7 8 8 8 8 8 8 8 8 8 8 9 9 8 8 8 8 8 8 9 9 10 10 10 10 11 11 11 11 11 11 11 12 12
8 7 8 7 7 7 7 7 8 8 8 8 8 8 8 8 8 8 8 8 9 9 9 9 9 9 9 9 9 10 10 11 11 10 11 11 11 11 11 12 12 13 14
9 9 9 8 8 7 8 7 8 7 7 8 7 8 8 8 9 9 9 9 9 9 9 9 10 10 9 10 10 11 11 11 11 11 11 11 11 12 12 13 14 14 15
10 10 10 9 9 8 8 8 8 8 8 8 8 9 9 9 9 9 10 10 10 10 10 10 10 10 10 11 12 12 12 12 12 12 12 13 13 13 14 14 15 16 16
11 11 11 10 10 9 9 8 8 8 9 9 9 9 10 10 10 10 10 11 11 11 11 12 12 12 12 12 13 13 13 13 13 13 14 14 14 14 15 16 16 17 18
11 11 11 10 10 9 9 9 9 9 9 9 10 10 10 11 11 11 12 12 12 12 13 13 13 13 13 13 13 14 14 14 14 15 15 15 16 16 17 17 17 18 19
12 11 11 11 10 10 10 10 10 10 11 10 11 11 12 12 12 12 13 13 14 14 14 14 14 15 15 15 15 15 15 15 15 16 16 17 17 18 18 19 19 20 21
13 12 12 12 11 11 11 11 11 11 12 12 12 12 13 13 14 13 14 14 14 15 15 16 16 16 16 16 16 16 16 16 16 17 18 18 18 18 19 20 20 21 22
15 14 13 13 12 12 12 12 12 13 13 13 13 13 13 13 14 15 15 15 15 15 15 16 17 17 17 17 17 18 18 18 18 19 19 20 20 20 21 22 22 23 24
17 16 15 14 14 13 13 13 12 13 13 14 14 15 15 15 15 16 17 17 17 16 16 17 17 18 18 18 19 19 20 20 20 20 21 21 22 22 23 23 24 24 25
19 18 17 16 16 15 15 14 14 15 15 15 16 16 17 17 17 17 18 18 18 17 18 18 18 19 19 20 21 21 21 21 21 22 23 23 23 23 24 24 25 26 26
20 20 19 18 18 18 17 17 17 16 17 17 18 18 18 19 18 18 19 19 19 19 19 20 20 20 21 21 22 22 22 22 23 23 24 24 24 25 25 26 26 27 28
21 21 21 21 20 20 19 18 18 18 19 19 20 19 19 19 19 20 20 21 21 21 21 21 21 22 22 22 23 23 23 24 25 25 25 25 26 26 27 28 28 29 30
23 23 22 22 22 21 20 20 20 21 21 21 21 21 21 21 21 21 21 22 22 23 23 23 23 23 23 24 24 25 25 26 26 27 27 27 27 28 29 30 30 31 32
Wind_Direction
274 271 265 265 263 263 260 261 245 249 253 257 260 265 274 281 281 273 266 265 267 268 270 267 252 244 246 248 249 245 250 258 268 277 280 286 280 271 266 274 278 281 281
278 270 261 261 258 260 263 260 249 249 251 254 256 262 263 275 281 272 266 267 267 267 267 261 250 242 246 248 247 245 253 263 269 275 275 281 278 268 268 277 282 283 283
280 276 267 262 257 259 266 266 262 261 265 262 256 255 257 261 268 271 268 267 267 270 272 260 249 251 251 255 251 247 251 267 278 278 277 276 272 271 277 280 279 280 281
281 276 274 268 263 266 267 266 264 267 271 265 253 252 251 260 270 272 271 261 255 265 273 257 243 238 252 260 261 254 262 274 283 278 272 272 274 279 285 285 283 284 287
284 279 276 277 275 275 265 262 268 263 263 260 251 245 251 258 265 269 253 231 236 260 274 273 255 245 252 259 266 273 278 280 283 284 279 276 274 281 287 290 288 290 293
288 282 279 277 272 271 264 262 270 273 268 259 255 250 248 251 258 261 244 242 253 260 268 275 271 260 262 264 270 273 275 277 280 283 290 287 284 285 288 290 290 292 293
287 287 286 277 272 272 270 266 266 266 267 263 256 253 250 252 252 254 243 248 258 261 262 273 275 270 267 271 274 270 270 279 282 285 288 288 286 287 288 289 291 291 290
296 293 289 280 274 275 276 272 264 261 262 262 255 252 253 254 259 256 248 249 257 261 268 271 274 273 273 277 279 274 273 278 279 283 287 287 288 291 290 290 293 294 293
305 299 291 281 273 271 274 275 267 261 260 261 256 252 256 257 255 256 254 254 254 261 271 275 277 278 277 279 283 289 284 282 282 285 287 288 287 289 289 290 293 294 294
302 299 293 284 275 268 270 271 267 264 261 259 252 250 251 251 253 256 254 253 259 267 276 279 281 279 279 280 286 287 287 285 287 290 291 291 290 288 288 290 292 294 293
296 293 291 289 276 268 267 267 265 265 262 258 254 251 245 246 253 253 252 261 265 269 272 281 282 282 283 282 287 291 293 291 289 293 294 292 292 292 292 292 293 293 293
292 291 292 289 278 267 266 267 267 264 258 257 254 254 250 250 251 251 256 261 266 268 270 275 281 283 283 283 287 290 294 294 292 293 294 294 293 293 293 292 292 292 293
290 289 289 290 282 272 267 266 268 268 264 257 256 257 254 252 248 253 259 262 265 268 270 275 282 285 286 287 286 288 290 292 293 292 293 294 293 292 292 292 293 294 294
285 283 285 285 285 278 269 266 264 266 263 259 259 257 252 252 251 255 259 264 267 268 272 275 280 283 284 285 286 290 294 296 296 295 294 294 293 291 291 292 293 294 295
280 277 276 278 280 275 268 264 260 261 261 259 260 258 256 256 258 263 265 264 266 271 273 276 282 284 285 287 288 292 295 297 296 297 298 296 292 290 291 290 291 292 295
276 276 272 271 276 273 269 266 258 257 259 259 260 260 260 259 259 263 268 269 268 271 276 280 287 287 288 289 290 293 294 292 291 293 295 295 292 290 290 291 291 292 295
272 273 275 273 270 267 266 266 264 262 264 261 261 263 263 261 261 264 269 274 274 276 279 281 284 285 287 290 290 291 293 292 291 293 294 295 296 296 295 295 296 296 296
272 273 274 273 269 265 264 266 265 264 263 261 262 263 265 265 263 265 270 273 275 277 279 281 282 283 284 285 287 290 292 290 290 291 292 294 295 295 296 296 297 296 297
269 272 273 270 267 264 260 260 261 262 262 264 265 266 266 268 267 268 271 274 275 277 280 281 282 282 283 285 286 287 289 290 290 291 291 291 293 294 295 296 297 297 298
266 268 269 268 268 265 260 258 258 260 261 263 265 266 268 271 270 268 271 274 277 279 279 279 281 283 283 285 285 286 287 288 288 289 289 289 290 292 294 295 296 297 298
262 265 266 267 269 267 261 260 260 260 260 261 264 265 268 272 272 271 272 275 278 279 280 280 280 282 282 283 285 286 287 287 288 288 288 288 289 290 292 295 296 297 298
259 261 263 264 265 265 262 260 260 263 261 262 264 265 267 269 272 275 273 274 278 278 279 281 282 282 283 282 283 285 286 287 288 288 287 287 288 290 292 294 296 297 298
257 259 261 263 262 263 263 261 261 263 263 266 268 269 268 268 271 275 275 276 277 279 281 282 283 283 284 283 283 283 285 287 287 289 288 288 287 289 290 293 295 297 298
257 257 259 262 263 262 263 262 263 265 266 268 269 271 271 271 271 274 276 277 278 279 280 281 282 282 284 285 285 284 284 285 287 289 289 288 289 289 289 292 294 296 298
258 258 258 260 262 262 262 263 264 267 267 267 269 271 273 273 272 273 274 276 277 278 280 282 282 283 284 285 286 286 285 285 286 288 289 289 289 289 290 292 294 295 297
259 258 257 257 259 260 262 263 265 267 267 270 271 270 271 271 271 272 273 274 276 277 279 280 282 283 284 284 285 285 285 285 286 287 288 289 289 289 289 291 293 294 296
Height
5848 5848 5848 5848 5848 5848 5848 5848 5848 5848 5849 5849 5849 5849 5849 5849 5849 5849 5849 5849 5849 5849 5849 5849 5849 5849 5849 5850 5850 5850 5850 5850 5850 5851 5851 5851 5850 5850 5851 5851 5851 5851 5850
5846 5846 5846 5847 5847 5847 5847 5847 5847 5847 5847 5848 5848 5848 5848 5848 5848 5848 5848 5848 5848 5848 5848 5848 5848 5848 5848 5849 5849 5849 5849 5849 5849 5850 5850 5850 5850 5849 5850 5850 5849 5849 5849
5845 5845 5845 5845 5845 5845 5845 5846 5846 5846 5846 5846 5846 5847 5847 5848 5848 5847 5847 5847 5847 5847 5847 5847 5847 5848 5848 5848 5848 5848 5849 5848 5848 5849 5849 5849 5849 5849 5849 5848 5848 5848 5848
5844 5844 5844 5844 5844 5844 5844 5844 5844 5845 5845 5845 5846 5846 5847 5847 5847 5846 5846 5847 5847 5847 5847 5847 5847 5847 5847 5847 5847 5848 5848 5848 5848 5848 5848 5848 5848 5848 5848 5848 5847 5847 5846
5843 5843 5843 5843 5843 5842 5843 5843 5843 5844 5844 5844 5845 5845 5846 5846 5846 5846 5846 5846 5846 5846 5846 5846 5846 5846 5847 5847 5847 5847 5847 5847 5847 5847 5847 5847 5847 5847 5846 5846 5846 5846 5845
5842 5842 5842 5842 5842 5842 5842 5842 5842 5843 5843 5843 5844 5844 5844 5845 5845 5845 5845 5845 5846 5846 5846 5845 5846 5845 5846 5846 5846 5846 5846 5846 5846 5846 5845 5845 5845 5845 5845 5845 5844 5844 5844
5841 5841 5841 5841 5841 5841 5841 5841 5841 5842 5842 5842 5842 5843 5843 5843 5844 5844 5844 5845 5845 5845 5845 5845 5845 5845 5845 5845 5845 5845 5845 5844 5844 5844 5844 5844 5843 5843 5843 5843 5843 5842 5842
5840 5840 5840 5839 5839 5839 5839 5839 5840 5840 5841 5841 5841 5842 5842 5842 5843 5843 5843 5843 5844 5844 5844 5844 5844 5844 5844 5844 5843 5843 5843 5843 5843 5843 5842 5842 5842 5842 5841 5841 5841 5841 5840
5839 5839 5839 5838 5838 5838 5838 5838 5838 5838 5839 5839 5840 5840 5840 5841 5841 5842 5842 5842 5843 5843 5843 5843 5843 5843 5842 5842 5842 5842 5841 5841 5841 5841 5840 5840 5840 5840 5839 5839 5839 5839 5838
5838 5838 5837 5837 5837 5837 5837 5837 5837 5837 5837 5838 5838 5839 5839 5839 5840 5840 5841 5841 5841 5841 5842 5842 5842 5841 5841 5841 5841 5840 5840 5839 5839 5839 5839 5838 5838 5837 5837 5837 5836 5836 5835
5837 5837 5836 5836 5835 5835 5836 5836 5836 5836 5836 5836 5837 5837 5837 5838 5838 5839 5839 5840 5840 5840 5840 5840 5840 5840 5840 5839 5839 5839 5838 5838 5837 5837 5836 5836 5835 5835 5834 5834 5834 5833 5833
5836 5835 5835 5834 5834 5834 5834 5834 5834 5834 5835 5835 5835 5835 5836 5837 5837 5838 5838 5838 5839 5839 5839 5839 5838 5838 5838 5838 5837 5837 5837 5836 5835 5835 5834 5834 5833 5832 5832 5831 5831 5830 5830
5834 5834 5834 5833 5833 5833 5833 5833 5833 5833 5833 5833 5834 5834 5835 5835 5836 5836 5836 5837 5837 5837 5837 5837 5837 5836 5836 5836 5835 5835 5835 5834 5833 5833 5832 5831 5831 5830 5829 5829 5828 5827 5827
5832 5832 5832 5831 5831 5831 5831 5831 5831 5831 5831 5831 5832 5832 5833 5834 5834 5834 5835 5835 5835 5835 5835 5835 5835 5834 5834 5834 5833 5833 5832 5831 5831 5830 5829 5829 5828 5827 5827 5826 5825 5824 5823
5830 5830 5830 5829 5829 5829 5829 5829 5829 5829 5829 5830 5830 5831 5831 5832 5832 5833 5833 5833 5833 5833 5833 5833 5833 5832 5832 5832 5831 5831 5830 5829 5828 5828 5827 5826 5825 5825 5824 5823 5822 5821 5820
5828 5827 5827 5827 5827 5826 5826 5827 5827 5827 5828 5828 5828 5829 5829 5830 5830 5831 5831 5831 5831 5831 5831 5831 5830 5830 5829 5829 5829 5828 5827 5826 5826 5825 5824 5823 5822 5821 5820 5819 5818 5817 5816
5825 5825 5825 5824 5824 5824 5824 5824 5825 5825 5825 5826 5826 5827 5827 5828 5828 5828 5828 5828 5828 5828 5828 5828 5828 5827 5827 5826 5826 5825 5824 5823 5822 5822 5821 5820 5819 5817 5816 5815 5814 5813 5811
5822 5822 5821 5821 5821 5821 5821 5822 5822 5823 5823 5823 5824 5824 5824 5825 5825 5825 5825 5825 5825 5825 5825 5825 5824 5824 5824 5823 5822 5821 5820 5820 5819 5818 5817 5816 5815 5814 5812 5811 5810 5808 5806
5818 5818 5818 5818 5818 5818 5818 5819 5819 5820 5820 5821 5821 5821 5821 5822 5822 5822 5822 5822 5822 5822 5822 5821 5821 5820 5820 5819 5818 5818 5817 5816 5815 5814 5813 5812 5811 5809 5808 5807 5805 5803 5801
5815 5815 5815 5815 5815 5815 5815 5816 5816 5817 5817 5817 5818 5818 5818 5818 5818 5818 5818 5818 5818 5818 5818 5817 5817 5816 5816 5815 5814 5813 5812 5812 5811 5810 5808 5807 5806 5805 5803 5801 5800 5798 5796
5810 5811 5811 5811 5811 5811 5812 5812 5813 5813 5813 5814 5814 5814 5814 5814 5814 5814 5815 5814 5814 5814 5814 5813 5813 5812 5811 5811 5810 5809 5808 5807 5806 5804 5803 5802 5801 5799 5797 5796 5794 5792 5790
5806 5806 5807 5807 5807 5807 5808 5809 5809 5809 5809 5810 5810 5810 5810 5810 5810 5810 5810 5810 5810 5810 5809 5809 5808 5807 5806 5806 5805 5804 5803 5801 5800 5799 5798 5796 5795 5793 5791 5790 5788 5786 5783
5800 5801 5802 5802 5802 5803 5803 5804 5805 5805 5805 5805 5805 5805 5806 5806 5806 5805 5805 5805 5805 5805 5804 5804 5803 5802 5801 5800 5799 5798 5797 5796 5794 5793 5792 5790 5788 5787 5785 5783 5781 5779 5777
5794 5795 5796 5797 5797 5797 5798 5799 5799 5799 5800 5800 5800 5800 5800 5800 5800 5800 5800 5800 5799 5799 5799 5798 5797 5796 5795 5794 5793 5792 5791 5789 5788 5787 5785 5783 5781 5780 5778 5776 5774 5772 5769
5788 5789 5790 5791 5791 5792 5792 5792 5793 5793 5794 5794 5795 5795 5795 5794 5794 5794 5794 5794 5793 5793 5793 5792 5791 5790 5789 5788 5787 5785 5784 5782 5781 5779 5778 5776 5774 5773 5771 5768 5766 5763 5761
5781 5782 5783 5784 5785 5785 5786 5786 5787 5787 5787 5788 5788 5788 5788 5788 5788 5787 5787 5787 5787 5786 5785 5785 5784 5783 5782 5781 5780 5778 5777 5775 5773 5772 5770 5768 5767 5765 5762 5760 5758 5755 5752